Moorhead, MN

12:54 PM CDT on July 22, 2017 (GMT -0500)
Moorhead Municipal

Weather History for KJKJ - October, 2012

Change the Weather History Date:

Thursday, October 4, 2012

  Actual Average (KFAR) Record (KFAR)
Temperature  
Mean Temperature 40 °F -  
Max Temperature 46 °F 61 °F 87 °F (1975)
Min Temperature 33 °F 37 °F 22 °F (2004)
Degree Days  
Heating Degree Days 26    
Moisture  
Dew Point 36 °F    
Average Humidity 89    
Maximum Humidity 100    
Minimum Humidity 75    
Precipitation  
Precipitation 0.08 in - - ()
Sea Level Pressure  
Sea Level Pressure 30.03 in    
Wind  
Wind Speed 27 mph (NNW)    
Max Wind Speed 34 mph    
Max Gust Speed 43 mph    
Visibility 7 miles    
Events Rain , Snow    
Averages and records for this station are not official NWS values.
T = Trace of Precipitation, MM = Missing Value Source: NWS Daily Summary

Daily Weather History Graph

Daily Weather History Graph

Search for Another Location

Airport or City:

Trip Planner

Search our weather history database for the weather conditions in past years. The results will help you decide how hot, cold, wet, or windy it might be!

Date:

Astronomy

Oct. 04, 2012 Rise Set
Actual Time 7:30 AM CDT 6:59 PM CDT
Civil Twilight 6:59 AM CDT 7:29 PM CDT
Nautical Twilight 6:24 AM CDT 8:04 PM CDT
Astronomical Twilight 5:49 AM CDT 8:40 PM CDT
Moon 9:18 PM CDT (10/4) 12:05 PM CDT (10/4)
Length of Visible Light 12h 29m
Length of Day
11h 29m
Waning Gibbous, 82% of the Moon is Illuminated
Oct 4
Waning Gibbous
Oct 8
Last Quarter
Oct 15
New
Oct 21
First Quarter
Oct 29
Full

Hourly Weather History & Observations

Time (CDT) Temp. Windchill Dew Point Humidity Pressure Visibility Wind Dir Wind Speed Gust Speed Precip Events Conditions
12:15 AM 46.4 °F 37.4 °F 41.0 °F 81% 29.86 in 10.0 mi North 28.8 mph 36.8 mph N/A   Overcast
12:35 AM 44.6 °F 34.7 °F 41.0 °F 87% 29.85 in 10.0 mi North 29.9 mph 35.7 mph N/A   Overcast
12:55 AM 44.6 °F 34.7 °F 41.0 °F 87% 29.84 in 10.0 mi North 29.9 mph 36.8 mph N/A   Overcast
1:14 AM 44.6 °F 34.9 °F 41.0 °F 87% 29.84 in 10.0 mi North 28.8 mph 41.4 mph N/A   Overcast
1:35 AM 44.6 °F 35.1 °F 41.0 °F 87% 29.84 in 10.0 mi North 27.6 mph 40.3 mph N/A   Overcast
1:55 AM 44.6 °F 35.1 °F 41.0 °F 87% 29.84 in 10.0 mi North 27.6 mph 36.8 mph N/A   Overcast
2:14 AM 44.6 °F 34.9 °F 41.0 °F 87% 29.84 in 10.0 mi North 28.8 mph 36.8 mph N/A   Overcast
2:35 AM 44.6 °F 34.7 °F 41.0 °F 87% 29.84 in 10.0 mi North 29.9 mph 36.8 mph N/A   Overcast
2:55 AM 44.6 °F 35.1 °F 42.8 °F 93% 29.84 in 10.0 mi North 27.6 mph 39.1 mph N/A   Overcast
3:14 AM 42.8 °F 32.5 °F 41.0 °F 93% 29.84 in 10.0 mi North 28.8 mph 38.0 mph N/A   Overcast
3:35 AM 42.8 °F 32.9 °F 41.0 °F 93% 29.83 in 3.0 mi North 26.5 mph 32.2 mph N/A   Overcast
3:55 AM 41.0 °F 30.2 °F 41.0 °F 100% 29.85 in 2.0 mi NNW 27.6 mph 35.7 mph N/A   Overcast
4:15 AM 41.0 °F 29.8 °F 39.2 °F 93% 29.87 in 2.0 mi NNW 29.9 mph 36.8 mph N/A   Drizzle
4:35 AM 39.2 °F 27.4 °F 37.4 °F 93% 29.87 in 2.0 mi NNW 29.9 mph 36.8 mph N/A   Drizzle
4:55 AM 35.6 °F 22.5 °F 35.6 °F 100% 29.88 in 2.5 mi NNW 29.9 mph 40.3 mph 0.01 in   Drizzle
5:15 AM 35.6 °F 21.7 °F 35.6 °F 100% 29.88 in 2.5 mi NNW 34.5 mph 41.4 mph N/A Rain Light Rain
5:35 AM 35.6 °F 22.7 °F 33.8 °F 93% 29.90 in 3.0 mi NNW 28.8 mph 42.6 mph 0.01 in Rain Light Rain
5:54 AM 33.8 °F 19.6 °F 33.8 °F 100% 29.90 in 1.2 mi NNW 32.2 mph 41.4 mph 0.03 in Snow Light Snow
6:15 AM 33.8 °F 20.1 °F 33.8 °F 100% 29.91 in 1.0 mi NNW 29.9 mph 41.4 mph 0.02 in Snow Snow
6:34 AM 33.8 °F 20.5 °F 33.8 °F 100% 29.91 in 1.0 mi NNW 27.6 mph 39.1 mph 0.02 in Snow Snow
6:55 AM 33.8 °F 20.3 °F 33.8 °F 100% 29.91 in 2.0 mi NNW 28.8 mph 34.5 mph 0.02 in Snow Light Snow
7:15 AM 33.8 °F 20.8 °F 33.8 °F 100% 29.92 in 3.0 mi NNW 26.5 mph 35.7 mph N/A Snow Light Snow
7:39 AM 33.8 °F 21.9 °F 33.8 °F 100% 29.93 in 1.8 mi NNW 21.9 mph 34.5 mph 0.01 in Snow Light Snow
7:55 AM 33.8 °F 20.5 °F 33.8 °F 100% 29.93 in 1.2 mi NW 27.6 mph 33.4 mph 0.01 in Snow Light Snow
8:15 AM 33.8 °F 20.1 °F 33.8 °F 100% 29.94 in 1.5 mi NNW 29.9 mph 36.8 mph N/A Snow Light Snow
8:35 AM 33.8 °F 20.8 °F 33.8 °F 100% 29.95 in 0.8 mi NW 26.5 mph 34.5 mph N/A Snow Light Snow
8:55 AM 33.8 °F 21.3 °F 33.8 °F 100% 29.97 in 0.8 mi NW 24.2 mph 34.5 mph 0.01 in Snow Light Snow
9:15 AM 33.8 °F 20.5 °F 33.8 °F 100% 29.98 in 0.8 mi NW 27.6 mph 35.7 mph N/A Snow Light Snow
9:35 AM 33.8 °F 21.3 °F 33.8 °F 100% 30.00 in 1.0 mi NW 24.2 mph 29.9 mph N/A Snow Light Snow
9:55 AM 33.8 °F 21.3 °F 33.8 °F 100% 30.01 in 1.2 mi NW 24.2 mph 28.8 mph N/A Snow Light Snow
10:15 AM 33.8 °F 21.6 °F 33.8 °F 100% 30.02 in 1.8 mi NW 23.0 mph 27.6 mph N/A Snow Light Snow
10:35 AM 35.6 °F 23.4 °F 33.8 °F 93% 30.02 in 4.0 mi NW 25.3 mph 29.9 mph N/A Rain Light Rain
10:54 AM 35.6 °F 23.4 °F 35.6 °F 100% 30.03 in 7.0 mi NW 25.3 mph 34.5 mph N/A Rain Light Rain
11:15 AM 37.4 °F 25.6 °F 35.6 °F 93% 30.03 in 10.0 mi NW 26.5 mph 34.5 mph N/A   Mostly Cloudy
11:35 AM 37.4 °F 25.9 °F 35.6 °F 93% 30.04 in 10.0 mi NW 25.3 mph 35.7 mph N/A   Mostly Cloudy
11:54 AM 37.4 °F 25.6 °F 35.6 °F 93% 30.05 in 10.0 mi NW 26.5 mph 33.4 mph N/A   Overcast
12:15 PM 37.4 °F 26.9 °F 37.4 °F 100% 30.06 in 10.0 mi NW 20.7 mph 28.8 mph N/A   Overcast
12:35 PM 37.4 °F 26.1 °F 37.4 °F 100% 30.07 in 5.0 mi NW 24.2 mph 29.9 mph N/A   Light Drizzle
12:55 PM 39.2 °F 27.4 °F 37.4 °F 93% 30.08 in 10.0 mi NW 29.9 mph 33.4 mph N/A   Light Drizzle
1:14 PM 39.2 °F 28.3 °F 37.4 °F 93% 30.08 in 10.0 mi NW 25.3 mph 35.7 mph N/A   Light Drizzle
1:35 PM 41.0 °F 30.5 °F 37.4 °F 87% 30.09 in 10.0 mi NW 26.5 mph 39.1 mph N/A   Mostly Cloudy
1:55 PM 41.0 °F 30.2 °F 37.4 °F 87% 30.09 in 10.0 mi NW 27.6 mph 38.0 mph N/A   Mostly Cloudy
2:14 PM 41.0 °F 29.8 °F 37.4 °F 87% 30.09 in 10.0 mi NW 29.9 mph 38.0 mph N/A   Mostly Cloudy
2:35 PM 41.0 °F 30.7 °F 37.4 °F 87% 30.10 in 10.0 mi NW 25.3 mph 36.8 mph N/A   Mostly Cloudy
2:55 PM 42.8 °F 33.1 °F 37.4 °F 81% 30.10 in 10.0 mi NW 25.3 mph 34.5 mph N/A   Overcast
3:15 PM 42.8 °F 33.1 °F 37.4 °F 81% 30.10 in 10.0 mi NW 25.3 mph 34.5 mph N/A   Overcast
3:35 PM 42.8 °F 32.7 °F 37.4 °F 81% 30.11 in 10.0 mi NW 27.6 mph 35.7 mph N/A   Overcast
3:55 PM 42.8 °F 32.9 °F 37.4 °F 81% 30.11 in 10.0 mi NNW 26.5 mph 34.5 mph N/A   Overcast
4:15 PM 42.8 °F 32.9 °F 37.4 °F 81% 30.12 in 10.0 mi NNW 26.5 mph 39.1 mph N/A   Overcast
4:35 PM 41.0 °F 30.9 °F 37.4 °F 87% 30.12 in 5.0 mi NW 24.2 mph 40.3 mph N/A   Overcast
4:55 PM 42.8 °F 32.9 °F 37.4 °F 81% 30.13 in 10.0 mi NW 26.5 mph 32.2 mph N/A   Overcast
5:15 PM 42.8 °F 32.5 °F 37.4 °F 81% 30.13 in 10.0 mi NW 28.8 mph 36.8 mph N/A   Overcast
5:55 PM 42.8 °F 33.8 °F 37.4 °F 81% 30.15 in 10.0 mi NW 21.9 mph 35.7 mph N/A   Mostly Cloudy
6:15 PM 41.0 °F 30.5 °F 37.4 °F 87% 30.15 in 10.0 mi NNW 26.5 mph 34.5 mph N/A   Mostly Cloudy
6:35 PM 41.0 °F 31.1 °F 35.6 °F 81% 30.16 in 10.0 mi NW 23.0 mph 29.9 mph N/A   Scattered Clouds
6:55 PM 41.0 °F 31.4 °F 35.6 °F 81% 30.16 in 10.0 mi NW 21.9 mph 27.6 mph N/A   Mostly Cloudy
7:15 PM 41.0 °F 33.1 °F 35.6 °F 81% 30.17 in 10.0 mi NW 15.0 mph 18.4 mph N/A   Overcast
7:35 PM 41.0 °F 32.5 °F 35.6 °F 81% 30.18 in 10.0 mi NW 17.3 mph 27.6 mph N/A   Overcast
7:55 PM 41.0 °F 31.4 °F 35.6 °F 81% 30.18 in 10.0 mi NW 21.9 mph - N/A   Overcast
8:15 PM 41.0 °F 31.4 °F 35.6 °F 81% 30.18 in 10.0 mi NW 21.9 mph 27.6 mph N/A   Overcast
8:35 PM 39.2 °F 29.0 °F 35.6 °F 87% 30.18 in 10.0 mi NW 21.9 mph 27.6 mph N/A   Overcast
8:55 PM 39.2 °F 28.7 °F 35.6 °F 87% 30.18 in 10.0 mi NW 23.0 mph 32.2 mph N/A   Overcast
9:15 PM 39.2 °F 29.0 °F 33.8 °F 81% 30.18 in 10.0 mi NW 21.9 mph 32.2 mph N/A   Overcast
9:34 PM 39.2 °F 28.7 °F 33.8 °F 81% 30.18 in 10.0 mi NW 23.0 mph 32.2 mph N/A   Overcast
9:55 PM 39.2 °F 30.2 °F 33.8 °F 81% 30.19 in 10.0 mi NW 17.3 mph 26.5 mph N/A   Overcast
10:15 PM 37.4 °F 27.2 °F 32.0 °F 81% 30.19 in 10.0 mi NW 19.6 mph 25.3 mph N/A   Overcast
10:34 PM 37.4 °F 27.8 °F 32.0 °F 81% 30.19 in 10.0 mi NW 17.3 mph - N/A   Overcast
10:55 PM 37.4 °F 27.8 °F 32.0 °F 81% 30.19 in 10.0 mi NW 17.3 mph 24.2 mph N/A   Overcast
11:15 PM 37.4 °F 26.9 °F 32.0 °F 81% 30.19 in 10.0 mi NW 20.7 mph 24.2 mph N/A   Overcast
11:35 PM 37.4 °F 28.2 °F 30.2 °F 75% 30.20 in 10.0 mi NW 16.1 mph 24.2 mph N/A   Overcast
11:55 PM 37.4 °F 28.5 °F 30.2 °F 75% 30.20 in 10.0 mi NW 15.0 mph - N/A   Overcast